Theta_e
300 300 299 301 302 303 303 303 302 302 301 298 298 298 301 301 299 297 296 297 300 304 305 303 298 297 295 293 292 291 290 289 289 288 287 287 286 285 284 284 283 282 282 281
300 300 300 300 301 302 303 304 302 299 300 299 300 302 301 302 301 300 300 297 299 305 301 298 296 295 294 294 292 290 289 288 288 287 286 286 285 284 283 283 282 281 280 280
301 300 299 301 299 300 302 303 302 300 298 300 299 305 307 304 301 300 299 300 300 303 301 296 295 295 294 293 292 290 288 288 287 287 286 284 283 282 281 281 280 279 278 279
301 300 301 302 300 299 300 301 301 300 300 301 299 310 304 305 303 301 298 296 297 300 302 298 296 295 294 292 290 289 288 287 286 284 283 282 281 280 280 279 278 278 278 278
303 299 300 301 301 299 299 300 300 301 301 305 303 301 304 305 305 302 298 295 294 294 298 299 296 295 292 289 288 288 287 285 284 283 282 280 279 278 278 277 277 277 276 276
300 299 297 297 298 298 298 303 301 299 299 305 297 300 309 305 305 301 297 295 294 293 291 290 290 289 288 288 287 286 285 283 281 281 279 278 277 277 277 276 276 275 275 275
300 302 298 297 298 300 298 302 305 310 307 312 287 299 307 305 301 300 296 295 293 291 289 288 287 287 286 284 284 283 282 280 280 279 278 277 276 276 276 275 274 274 274 273
299 306 297 295 297 297 300 300 305 306 307 307 290 302 307 300 297 295 294 293 292 291 289 287 286 285 283 282 281 281 280 279 278 277 276 275 275 275 274 273 273 273 272 271
298 305 297 296 297 297 301 297 297 293 283 296 303 304 306 299 297 295 294 293 293 290 288 286 285 283 281 281 280 279 278 277 277 276 275 274 274 273 273 272 272 271 270 270
297 299 296 297 297 296 300 297 300 298 301 306 306 299 309 302 297 295 294 294 293 289 287 285 283 281 281 280 278 278 276 276 275 275 274 274 273 272 271 271 270 269 269 268
297 295 303 297 296 298 296 297 296 298 302 301 300 308 303 303 297 295 293 294 290 286 286 283 281 281 280 279 277 276 276 275 275 274 273 273 272 271 270 270 269 268 268 267
297 298 297 303 299 296 299 300 297 303 303 297 299 305 298 294 287 289 292 292 289 282 283 281 281 281 280 279 277 276 275 274 274 273 272 272 271 270 270 269 268 268 267 267
297 298 304 314 304 296 294 296 297 294 297 298 300 309 291 285 286 288 289 289 287 281 277 280 281 281 279 278 276 275 275 274 273 272 271 271 270 269 269 268 267 267 266 266
296 297 301 314 313 300 300 298 296 295 292 298 300 308 308 305 292 293 289 289 285 282 281 281 281 280 279 278 276 275 274 273 272 271 271 270 269 268 268 267 266 266 265 265
296 293 296 296 297 294 300 300 296 295 297 301 311 304 308 307 303 302 295 288 283 282 282 282 281 279 278 277 275 275 274 272 271 271 270 269 268 267 267 266 265 265 265 265
294 295 290 295 297 298 299 300 297 298 299 295 299 301 302 301 300 293 294 289 287 286 284 282 280 278 277 276 275 274 273 272 271 270 270 269 267 266 266 265 265 264 264 264
293 290 289 300 292 296 309 309 301 296 294 299 303 307 294 292 295 297 296 292 291 287 284 281 279 277 276 275 274 273 272 271 270 269 269 267 266 266 265 264 264 264 264 263
288 288 285 296 294 309 314 304 301 302 305 298 303 304 305 304 299 296 293 294 289 284 281 279 278 277 276 274 273 272 271 270 269 268 267 266 266 265 264 264 263 264 263 263
292 290 293 298 291 306 314 304 301 302 307 303 302 302 302 293 295 297 289 286 284 282 280 279 277 276 274 273 272 271 271 269 268 267 266 266 265 264 264 263 263 263 263 263
293 295 300 291 307 322 317 296 293 298 318 308 300 302 298 298 307 309 285 283 282 280 279 277 275 274 273 272 271 270 269 268 267 266 266 265 264 263 263 263 262 263 263 263
296 297 299 302 305 304 304 293 297 318 324 303 298 299 297 303 304 289 284 282 280 278 276 275 274 273 272 271 270 269 268 267 266 266 265 265 264 263 263 263 263 263 263 263
304 300 297 299 303 309 295 299 314 318 308 302 296 299 299 298 287 284 283 281 279 277 276 274 273 272 271 270 269 268 267 266 266 265 265 265 264 263 263 262 262 262 263 263
312 312 311 307 307 307 297 309 307 303 306 303 300 298 299 294 286 283 282 280 278 276 275 274 272 271 270 269 268 267 267 266 265 265 265 264 263 263 263 262 262 263 263 264
302 303 307 309 316 313 313 310 305 302 302 300 298 298 295 295 285 282 281 279 277 275 274 272 271 270 269 269 268 267 266 266 265 264 264 263 263 262 263 262 262 262 263 264
310 303 310 313 313 314 312 312 310 307 297 295 293 294 294 288 284 282 280 278 276 274 273 272 271 270 269 269 268 267 267 265 264 264 263 262 262 262 261 262 262 263 264 266
303 316 313 320 318 317 315 304 302 299 297 296 292 289 287 285 283 281 279 277 275 273 272 271 270 270 269 269 268 268 266 265 264 263 263 262 262 261 261 261 262 263 265 266
Wind_Speed
6 9 3 2 1 2 3 2 5 5 1 7 4 13 18 12 4 7 8 8 7 8 8 19 17 14 11 9 8 7 6 4 7 11 12 15 17 20 21 17 19 24 24 28
7 3 3 3 2 2 4 3 5 8 2 3 8 19 8 3 2 2 4 6 6 3 4 10 16 16 14 9 8 7 5 3 6 7 10 11 17 16 20 18 24 22 26 27
6 1 2 1 4 4 1 0 3 5 9 2 8 7 4 1 1 3 5 2 5 4 7 6 14 17 11 9 6 5 2 4 5 7 11 16 20 19 15 21 22 26 27 26
5 2 2 1 4 3 4 1 2 5 5 3 6 4 5 2 1 4 6 6 5 4 4 5 10 9 8 5 4 3 3 5 7 11 15 18 17 16 18 20 21 24 22 24
1 6 5 6 1 1 4 2 4 1 3 3 5 3 8 2 3 2 2 3 5 5 4 3 4 2 4 7 6 6 6 7 10 14 16 17 20 20 19 21 22 20 22 22
3 0 2 2 3 3 3 1 2 3 2 3 2 3 6 3 3 3 2 1 4 5 6 9 11 11 11 9 10 8 7 9 12 14 16 19 18 21 19 19 20 21 22 21
5 2 2 3 3 1 5 5 4 6 5 5 1 2 11 5 4 4 8 5 3 5 6 6 8 11 11 11 9 6 9 11 13 16 18 19 19 18 17 19 20 23 21 22
4 6 4 6 4 1 4 3 4 4 3 5 1 6 6 1 2 2 4 6 4 4 3 5 6 7 9 8 8 8 10 11 14 16 19 20 19 17 18 18 19 19 20 21
5 4 2 4 3 2 3 4 2 5 1 3 4 8 9 2 3 4 6 6 6 4 3 4 4 7 8 7 6 8 10 10 13 17 20 17 17 16 18 18 18 18 21 21
1 4 0 2 0 2 3 1 4 3 4 6 6 7 6 6 9 7 8 9 8 6 5 4 4 7 5 4 5 7 10 10 13 14 18 14 16 17 18 18 18 22 20 23
4 3 4 1 3 5 2 2 3 3 4 4 3 8 7 8 7 12 10 9 7 5 4 4 5 4 2 2 6 8 11 11 13 16 16 15 16 18 18 19 21 21 23 22
3 4 4 8 1 2 1 4 4 4 6 3 2 10 3 4 4 6 9 7 3 3 4 4 6 4 1 4 7 8 11 11 12 17 15 16 17 19 18 19 23 21 23 22
1 2 5 9 1 2 3 4 3 3 2 7 3 8 3 4 5 8 9 6 4 4 3 4 5 4 3 5 7 8 11 13 14 17 16 17 19 20 20 21 22 24 23 25
2 1 7 6 8 1 5 5 5 5 3 4 13 26 25 20 8 9 8 9 6 6 6 5 3 5 4 6 8 10 11 14 16 19 18 19 20 21 22 23 24 24 23 23
4 4 3 7 13 5 15 19 8 13 12 9 28 11 25 22 8 9 4 3 6 6 6 5 4 6 6 7 9 10 12 15 19 20 22 24 26 28 27 26 25 25 22 22
2 3 2 6 7 5 10 19 13 20 18 14 26 32 33 29 14 6 7 5 6 6 7 5 4 6 7 7 10 11 14 18 19 20 23 23 26 29 30 29 28 24 24 24
4 4 2 7 3 9 10 12 11 7 6 6 8 22 2 4 5 5 4 6 6 6 6 6 6 7 6 7 8 11 16 18 19 22 22 25 27 30 31 29 27 26 26 26
5 4 2 5 5 1 8 6 7 13 15 17 18 20 21 10 2 2 3 5 5 7 7 5 7 5 4 4 9 13 16 17 20 22 25 27 29 30 30 29 27 28 27 26
1 3 3 2 3 10 11 4 6 6 11 13 21 21 16 2 1 4 3 3 5 6 7 9 6 3 1 6 10 15 16 17 21 24 27 30 30 30 30 28 28 28 25 25
1 2 0 2 4 7 5 2 3 4 14 10 11 14 5 4 4 7 8 7 8 9 10 8 5 2 3 7 11 13 14 18 18 22 27 30 28 28 27 27 25 24 24 24
4 2 7 9 6 12 15 8 4 1 17 5 6 5 7 5 4 5 9 8 11 11 10 8 5 1 3 7 10 10 14 15 21 24 28 28 27 27 24 24 24 24 22 22
10 10 6 3 5 13 11 3 9 13 2 2 3 5 6 4 7 10 9 10 12 11 11 8 5 1 2 6 9 10 12 19 22 26 27 27 27 27 23 23 23 21 19 20
3 10 6 14 11 7 14 13 12 3 5 4 4 6 8 7 7 11 10 10 12 13 11 8 5 2 1 5 8 12 16 19 23 25 25 25 26 25 26 21 21 19 19 19
6 5 5 4 20 31 23 18 19 17 15 4 5 6 8 7 12 11 10 9 10 13 14 10 6 3 1 5 8 11 15 17 21 24 26 24 23 26 26 23 18 19 19 20
7 9 12 23 31 31 24 25 18 12 5 5 4 5 8 10 11 12 10 11 13 15 14 10 7 3 1 5 8 11 14 17 21 23 23 22 22 23 21 23 20 20 20 21
8 19 11 19 27 19 19 1 4 6 6 9 8 5 5 8 13 11 11 16 17 16 15 11 7 4 0 4 8 12 14 16 19 23 23 23 23 22 19 19 28 20 17 20
Wind_Direction
14 67 83 264 19 214 226 244 252 260 39 331 240 286 296 314 261 277 269 271 249 223 206 194 193 194 195 209 212 210 208 258 311 328 336 338 341 337 343 347 339 339 335 335
31 76 242 285 329 266 222 268 297 287 313 6 335 302 283 305 42 33 10 343 240 145 148 165 188 200 209 218 216 203 205 273 334 346 347 343 339 342 342 339 339 337 335 337
106 178 309 248 40 24 37 292 336 261 327 232 319 293 315 319 92 65 40 31 27 182 177 182 197 210 217 220 212 195 180 358 7 0 346 346 347 344 344 341 338 338 338 336
102 332 324 16 77 28 335 144 260 294 17 282 17 276 306 324 105 48 35 34 22 32 179 204 214 221 224 222 169 134 60 54 24 8 2 2 360 349 336 334 333 336 338 331
337 13 11 43 342 140 247 299 303 49 85 12 336 77 269 344 257 178 61 60 29 31 50 79 65 116 118 111 87 70 79 39 14 1 357 356 354 345 339 338 338 334 331 329
72 13 59 283 288 224 320 117 56 62 99 19 284 82 283 246 235 204 174 79 31 34 47 64 80 86 79 88 88 74 44 23 6 356 356 357 352 348 342 338 336 332 329 331
348 8 340 21 322 199 29 43 345 356 9 233 282 20 248 251 260 230 183 167 82 57 55 62 71 81 82 74 64 36 23 15 0 355 354 355 353 350 343 338 334 331 330 330
63 329 11 353 52 307 22 108 139 269 280 282 16 233 256 211 24 68 138 150 134 83 77 86 85 102 97 79 51 27 14 2 355 354 354 352 349 347 338 331 329 327 327 325
18 284 64 35 357 52 321 46 149 96 59 32 275 286 289 184 249 188 178 193 209 188 145 138 140 116 112 77 46 17 1 358 355 351 347 348 344 339 333 329 327 327 324 327
132 331 347 284 307 53 93 137 27 16 337 302 284 279 244 258 234 219 208 223 228 198 183 171 140 138 111 64 20 359 1 357 352 344 347 339 336 334 330 330 328 325 322 323
136 113 278 91 185 183 51 17 44 135 150 209 288 267 219 231 214 203 217 224 226 215 205 184 154 152 123 17 3 354 358 354 346 340 337 335 333 333 331 327 324 322 319 323
210 162 252 237 106 355 333 212 164 132 267 235 162 266 245 242 244 194 216 237 232 205 209 193 193 191 272 346 343 350 349 347 337 334 333 334 330 329 326 322 321 318 318 321
63 337 347 340 51 65 209 215 162 97 59 225 154 265 320 301 272 235 240 255 233 190 217 220 217 231 286 317 332 335 339 337 334 335 331 331 330 327 321 319 319 318 318 319
86 198 184 214 231 131 251 223 202 148 157 210 233 270 276 277 251 255 252 241 216 199 207 208 223 248 279 311 322 319 327 333 338 337 335 331 330 326 322 320 319 316 318 318
126 222 230 252 268 221 261 255 196 206 220 213 270 250 273 276 270 273 246 218 185 205 208 211 214 244 278 303 314 319 327 335 339 337 336 337 334 331 328 323 321 320 318 318
32 283 43 286 276 275 272 261 226 235 251 251 261 277 267 273 283 252 226 193 211 197 201 192 218 244 272 296 313 322 332 339 338 336 336 334 333 332 331 330 329 323 323 324
150 142 69 264 345 324 286 253 188 205 215 178 208 247 336 274 227 254 238 201 205 188 175 184 216 238 267 299 318 333 337 336 335 335 335 337 336 334 334 334 331 329 328 327
140 109 140 270 349 346 239 233 202 207 250 209 259 269 271 281 189 194 150 188 172 153 156 191 214 235 281 316 331 334 336 337 336 336 337 338 339 335 335 334 332 333 333 322
34 124 278 257 206 295 281 212 184 183 274 231 235 259 269 111 322 230 147 142 137 146 168 190 189 214 294 339 335 335 337 337 340 341 337 340 339 335 334 330 333 332 321 316
64 61 92 17 256 279 227 174 163 154 285 226 197 240 187 117 279 300 148 133 132 151 161 151 155 143 342 333 337 337 337 339 340 336 335 337 338 335 331 333 324 321 318 315
158 172 219 242 259 275 265 159 180 92 297 198 180 162 150 197 225 131 138 133 147 155 148 143 126 108 341 337 339 342 338 342 337 336 338 342 343 339 334 327 322 323 321 316
170 169 202 192 217 279 143 109 190 268 279 155 163 185 196 183 133 145 146 148 160 158 144 145 158 152 333 343 348 343 342 340 340 342 345 348 349 345 330 327 327 327 325 321
227 205 195 195 215 235 189 242 254 226 271 223 199 192 208 158 167 159 159 159 175 159 148 163 166 167 333 0 353 345 345 343 341 343 349 350 349 345 342 331 327 330 328 323
245 194 231 309 242 256 265 259 253 264 256 215 191 175 177 185 155 157 155 164 166 150 162 173 166 176 27 357 358 354 348 344 345 350 352 350 341 342 346 334 332 327 328 320
193 152 224 250 264 278 267 261 273 279 158 147 152 175 178 142 158 157 162 171 164 158 173 174 178 163 20 0 0 355 355 350 353 356 354 347 346 341 334 331 331 330 325 325
186 228 225 250 258 265 289 344 145 152 186 188 157 148 141 153 159 162 166 170 157 160 171 174 182 179 117 3 3 1 358 356 356 358 355 353 348 341 333 329 327 340 335 338